Wind_Gust
10 9 10 13 14 15 8 3 4 5 7 10 13 14 20 25 17 8 20 14 8 13 11 11 8 8 8 10 10 11 10 13 30 22 17 16 18 18 20 23 24 23 23 21 21 18 19 17 15 10 15 13 16 15 15 14 12 11 12 13 12 10 11 12 12 10 10 9 9 7 12 13 11 13 12 12 10 11 10 8 9 7 8 8 12 13
13 11 15 14 13 11 7 5 5 7 7 9 11 11 17 17 16 10 13 12 15 11 2 6 2 6 11 6 9 7 14 15 27 25 23 20 16 16 18 21 22 17 15 22 17 16 17 13 12 11 16 13 19 15 16 15 14 11 10 11 12 10 10 11 12 11 9 8 13 13 10 11 11 13 13 11 9 10 10 9 7 6 6 8 7 9
11 16 16 16 12 7 2 3 3 6 8 6 7 11 15 18 8 13 13 13 12 5 7 8 9 10 9 18 11 6 12 15 25 25 25 25 20 15 18 18 19 18 19 22 19 16 18 16 11 12 15 14 17 15 16 14 14 12 10 10 10 12 11 10 7 9 10 6 6 11 13 16 15 9 11 12 11 8 10 8 8 8 7 5 4 5
9 14 17 16 7 6 1 2 6 6 4 4 7 9 12 12 8 5 3 15 8 10 6 4 9 15 14 14 7 5 6 7 9 18 23 21 22 21 22 23 23 20 20 24 23 22 19 18 14 12 15 15 15 15 13 15 16 14 10 9 9 11 8 7 8 13 12 13 12 13 15 11 15 16 12 11 11 11 12 10 7 6 6 6 6 4
19 11 11 11 7 5 3 4 4 2 6 5 6 8 14 14 13 15 6 5 4 6 6 7 11 15 9 13 11 5 6 14 10 11 7 7 17 19 29 19 26 25 20 23 20 18 17 17 16 15 14 15 17 15 14 15 15 14 12 11 10 9 7 6 11 14 13 16 15 16 13 14 13 10 10 13 11 9 8 8 9 7 7 8 9 8
16 8 9 9 6 5 6 3 2 2 5 7 7 11 12 11 12 4 5 8 9 11 5 8 6 15 12 12 12 11 5 9 11 10 10 6 9 25 29 22 21 19 15 25 24 24 18 16 12 12 12 15 14 14 12 13 14 13 13 12 9 6 6 10 10 12 13 14 16 15 16 14 12 12 12 12 12 10 10 8 6 7 8 8 7 7
15 6 5 5 5 5 4 2 4 7 8 4 11 4 8 17 14 6 8 2 3 5 7 10 10 13 10 8 9 11 10 7 9 8 6 7 9 21 26 22 22 19 15 15 19 19 16 16 16 14 14 14 14 13 10 11 13 14 14 13 12 8 8 9 10 11 13 11 12 12 13 13 14 14 7 7 10 12 11 10 10 9 7 7 9 7
5 9 8 7 3 2 4 5 7 7 5 11 3 7 12 14 8 6 6 4 8 3 4 9 13 10 11 16 13 5 4 11 7 8 9 7 9 20 25 23 22 25 24 24 20 19 20 20 21 20 17 16 17 13 10 10 12 15 16 15 12 8 10 9 11 11 13 14 11 12 11 11 11 13 15 13 12 11 11 12 8 8 7 6 7 7
5 7 9 5 3 3 5 7 7 11 16 9 5 7 5 10 8 10 8 7 10 5 8 5 6 11 12 14 13 12 9 6 6 7 8 6 6 10 15 17 14 10 11 13 14 12 12 17 16 16 15 13 14 15 14 13 11 11 13 16 10 11 11 11 12 12 11 13 13 14 12 10 12 14 14 13 12 12 11 10 9 11 9 9 8 8
9 9 10 9 8 6 7 11 15 14 13 11 8 5 8 7 13 11 11 7 5 7 6 6 3 11 9 6 6 5 6 9 9 9 11 15 22 18 25 21 20 19 17 18 20 19 19 19 17 15 14 11 12 9 9 6 11 10 9 9 13 13 13 13 13 13 12 12 13 13 11 15 14 14 12 12 12 10 12 13 11 10 11 10 10 9
14 4 9 10 6 7 9 9 15 16 14 7 3 10 7 7 9 10 9 6 10 8 9 5 11 8 12 8 3 10 10 8 7 7 8 14 12 12 12 11 11 14 14 13 14 16 19 18 17 17 18 15 10 10 11 10 9 12 17 18 15 16 15 15 15 13 14 13 12 13 14 16 16 15 15 14 11 11 11 13 12 12 11 10 9 9
13 8 10 11 10 13 9 16 13 10 7 7 7 4 10 12 8 4 7 4 9 11 4 6 13 9 12 7 9 7 4 11 9 11 12 12 13 13 12 15 13 14 14 17 15 10 6 8 7 13 13 12 12 11 11 9 10 9 15 19 19 15 17 16 16 14 15 15 13 10 15 16 17 15 16 16 14 13 13 12 13 12 11 9 9 8
15 8 4 11 11 11 7 5 10 8 5 4 5 9 7 11 10 8 5 9 8 12 4 7 18 12 11 14 12 6 4 2 10 16 13 14 15 13 15 15 17 19 16 17 15 12 12 7 9 11 12 11 11 14 11 13 11 12 11 18 22 19 18 18 17 15 15 15 13 13 15 14 15 16 16 15 13 11 13 12 13 13 13 10 10 8
11 11 12 11 12 14 5 6 6 8 6 5 8 7 8 10 6 5 5 7 7 8 6 8 7 12 8 8 7 5 9 6 13 11 15 15 14 12 12 15 19 18 17 17 14 12 11 8 7 11 13 12 14 15 19 13 13 14 12 16 23 19 18 17 17 15 15 15 13 10 13 15 15 15 15 14 14 12 13 13 13 13 13 12 11 10
7 12 11 9 12 17 10 10 10 7 4 11 7 14 15 11 11 7 4 5 5 6 6 7 10 10 6 12 7 6 7 13 18 21 14 11 12 14 16 20 20 19 15 13 12 11 8 8 5 6 10 19 15 17 15 13 11 12 13 12 24 20 16 15 15 13 13 15 11 9 12 14 14 15 15 13 12 13 13 12 13 12 12 12 10 12
11 12 9 15 8 16 10 8 11 6 6 6 9 7 7 9 12 9 10 7 8 6 7 11 12 11 7 8 7 6 9 15 14 15 16 11 15 17 17 17 16 15 13 13 10 6 6 5 8 9 11 10 14 18 16 16 13 10 12 16 18 22 21 16 10 10 12 12 10 9 10 12 13 14 13 11 10 10 12 11 13 13 12 12 12 10
5 13 6 13 22 12 2 5 12 9 9 9 12 5 8 11 14 5 4 10 6 7 12 11 9 5 5 5 6 6 8 8 14 11 12 11 15 17 16 14 12 11 11 8 6 7 7 7 9 11 9 12 14 19 19 23 24 20 19 22 21 18 22 14 13 11 9 6 8 7 9 9 11 12 12 13 11 9 9 11 11 13 13 12 13 12
7 13 13 12 7 9 7 5 9 8 8 8 7 9 5 3 7 13 11 6 6 6 11 4 6 3 8 13 9 8 7 8 13 11 14 14 17 17 15 13 12 12 10 8 10 9 10 10 10 9 9 8 8 12 14 20 21 27 28 31 29 22 12 28 24 14 14 10 9 8 8 6 10 10 10 11 12 10 9 9 10 11 12 13 13 14
5 11 10 8 12 6 7 7 2 5 5 7 15 8 13 10 4 7 7 6 5 7 9 6 5 7 7 8 13 7 9 9 11 15 18 17 16 17 16 15 12 10 9 10 11 11 12 13 15 15 13 14 13 7 6 13 14 18 21 31 31 24 18 15 12 17 18 8 9 7 9 7 7 8 8 9 10 9 10 10 10 10 12 12 11 13
4 6 12 10 12 12 14 13 7 6 8 18 8 10 3 8 7 6 15 8 12 7 3 9 2 5 7 8 9 13 8 7 6 9 15 17 17 17 14 13 13 9 7 8 10 9 8 9 9 10 12 14 17 17 14 9 5 3 7 19 20 20 21 15 11 13 6 10 12 12 9 6 7 7 8 9 11 10 9 10 9 8 10 13 12 12
8 6 6 10 12 14 15 7 9 9 6 12 6 8 8 9 7 8 5 6 7 11 7 6 6 10 14 12 10 10 12 13 8 8 8 15 17 15 14 14 12 11 8 8 6 7 8 8 8 9 10 12 12 12 14 17 17 18 13 12 20 23 21 17 10 11 10 7 10 9 9 7 5 6 8 8 11 9 7 7 7 8 8 11 12 12
7 6 6 7 13 9 12 13 7 6 8 5 4 5 10 6 17 15 20 17 8 8 6 5 9 8 12 9 16 9 4 7 8 18 15 16 16 15 15 11 12 11 9 10 8 6 7 7 7 8 11 10 12 14 15 14 17 18 21 16 12 18 20 19 13 11 11 4 9 6 8 4 3 7 7 9 9 8 9 7 8 7 8 6 6 12
5 4 6 6 8 10 12 17 16 14 11 7 7 6 7 7 12 11 10 13 9 7 6 9 8 13 11 4 7 9 8 4 12 20 16 15 15 13 12 11 9 9 9 9 8 7 6 7 7 9 10 10 11 11 9 12 14 13 13 16 18 13 8 11 13 10 10 11 9 12 13 14 13 13 11 11 9 9 9 9 9 9 10 8 7 6
10 6 6 7 10 13 14 14 17 15 13 7 3 4 4 6 3 5 9 8 7 4 7 6 9 6 8 6 12 8 11 5 14 19 17 13 14 12 12 10 9 8 8 8 8 7 9 8 7 8 8 9 11 9 9 9 10 11 12 12 15 17 16 14 11 6 4 11 14 10 11 11 11 12 11 10 8 9 8 7 7 7 6 4 6 10
8 6 9 6 11 13 13 13 15 16 16 13 8 7 7 10 7 8 12 8 8 2 5 7 9 2 9 8 5 9 11 13 18 12 14 16 11 13 11 10 9 8 8 8 8 8 9 9 10 8 8 9 9 8 8 9 10 9 11 11 13 11 10 11 11 12 10 11 10 12 12 6 8 16 14 14 12 10 7 7 9 8 6 5 4 4
6 3 6 4 6 5 5 6 9 12 12 11 7 9 6 5 5 13 6 13 7 8 6 6 4 5 4 8 13 11 12 15 11 15 11 11 9 12 11 10 10 8 7 6 5 5 7 9 11 12 10 9 8 9 8 9 9 9 9 9 8 11 9 8 8 9 9 9 8 6 5 2 2 3 6 9 7 7 7 7 11 13 9 10 9 7
4 4 4 4 6 8 10 14 5 12 11 11 12 12 11 6 9 5 5 4 7 4 6 4 11 8 2 3 8 8 12 10 12 10 11 7 10 10 9 9 8 8 8 7 6 7 8 10 7 8 10 12 11 8 8 10 9 9 9 10 8 9 10 9 10 9 9 8 7 6 4 3 3 5 5 8 7 5 6 8 9 13 16 14 13 15
3 5 4 5 7 12 12 15 15 13 13 12 10 8 7 8 6 7 4 9 5 12 11 2 7 5 5 4 4 7 4 5 10 11 8 9 8 4 10 8 8 8 7 8 9 9 8 7 7 7 6 8 8 10 10 9 9 8 8 7 5 6 7 8 9 9 10 10 9 7 6 5 5 6 6 4 3 4 6 7 8 8 6 7 9 9
6 6 4 6 9 13 13 14 12 14 13 13 13 9 9 11 14 14 9 10 6 9 18 4 2 8 4 2 2 3 7 5 6 13 18 15 13 7 10 10 13 9 11 10 8 8 8 7 7 9 9 9 11 11 10 10 8 7 7 7 5 4 3 5 7 7 7 7 7 7 6 5 3 3 3 4 4 6 10 12 13 12 11 10 11 10
8 4 5 8 11 10 12 12 11 12 10 10 9 9 9 8 6 6 7 5 4 5 6 4 2 4 6 9 6 4 6 7 11 9 7 16 14 9 4 3 4 7 14 13 12 12 10 8 6 6 7 7 8 9 9 8 7 8 8 7 6 6 4 5 6 8 8 7 7 7 6 7 6 6 5 4 4 5 5 8 11 11 10 11 11 11
8 6 6 4 6 9 11 13 13 12 11 14 12 12 14 8 10 10 9 9 7 5 6 7 9 5 7 10 13 11 16 18 20 20 16 13 11 8 11 8 8 11 19 12 16 14 14 12 8 7 9 9 9 6 4 5 9 7 7 6 5 6 6 5 5 5 5 6 6 7 6 6 7 6 6 5 5 6 6 7 8 9 10 10 9 10
4 6 4 4 5 7 8 9 11 10 13 12 8 6 8 9 11 8 8 7 14 15 12 15 17 12 13 12 8 16 15 15 13 12 13 14 15 14 15 17 21 21 24 17 2 10 13 13 13 8 8 7 4 5 5 7 2 9 6 3 4 3 6 5 3 2 1 2 2 2 2 6 6 7 7 8 10 10 10 9 8 9 11 12 10 11
5 4 4 3 4 7 7 11 14 14 15 16 9 4 6 5 2 4 4 9 8 6 13 9 4 6 9 10 13 14 11 11 13 11 9 12 14 17 17 19 14 14 21 16 22 16 15 15 13 13 11 9 10 9 11 11 9 7 5 5 2 5 4 4 5 5 5 3 3 3 2 1 1 2 3 2 3 4 6 6 6 6 3 5 12 12
3 3 5 4 11 5 2 7 10 12 9 12 6 12 12 4 10 9 9 11 11 16 7 5 6 10 11 14 13 9 10 10 10 9 10 13 13 18 17 16 17 27 23 17 19 17 13 11 13 13 11 8 7 6 4 5 5 5 4 4 4 2 3 3 3 2 3 2 1 1 2 2 1 1 2 4 6 5 5 5 4 2 3 4 5 3
7 4 5 5 8 8 4 6 9 14 18 3 16 17 15 10 9 9 7 14 14 13 13 17 16 15 16 17 17 14 11 9 9 17 15 13 12 12 14 15 19 20 17 16 15 21 15 8 12 11 11 10 8 6 5 7 3 2 2 4 4 1 1 3 4 3 4 2 1 1 1 1 1 4 3 4 5 5 3 2 2 4 6 6 5 3
6 6 10 10 10 6 7 6 14 14 5 6 14 17 13 11 19 11 10 17 17 15 15 16 16 17 18 19 18 12 9 12 13 19 19 19 17 13 12 11 11 15 16 14 15 11 9 7 10 8 7 6 7 6 6 6 6 4 4 2 2 2 1 3 6 3 2 3 2 1 1 1 2 2 3 3 3 3 3 3 2 3 5 4 6 8
10 11 9 10 8 11 8 8 17 11 16 14 11 14 19 11 10 8 7 11 16 15 13 9 11 13 13 13 13 14 12 9 12 16 18 19 21 20 13 13 11 11 11 12 11 5 4 6 7 5 6 7 5 2 3 5 6 6 6 7 9 4 4 5 6 3 1 3 2 4 6 3 3 3 3 2 2 2 2 1 2 4 3 4 6 7
14 15 8 12 13 11 6 8 12 8 14 4 4 9 8 8 5 6 6 3 15 16 14 10 13 14 14 15 16 12 10 16 14 12 15 18 14 12 16 14 14 14 14 7 10 6 7 5 4 9 10 5 4 3 4 6 8 5 4 5 6 6 8 5 4 7 7 7 6 6 5 3 4 4 5 3 3 2 1 1 2 3 4 4 6 7
8 7 11 17 8 6 5 9 12 11 9 2 8 8 9 10 9 7 4 4 12 11 14 13 12 12 11 12 13 13 14 11 6 10 14 14 15 15 16 16 14 12 11 8 5 7 11 7 5 4 6 6 5 6 5 4 3 4 6 6 7 6 7 9 9 6 2 2 2 2 2 2 1 2 3 2 1 1 2 3 4 5 4 6 6 8
12 12 13 8 6 8 6 8 11 10 11 7 9 13 12 12 11 11 7 7 13 13 10 12 12 12 9 10 9 11 10 8 10 11 12 13 12 12 16 17 16 14 11 11 6 2 4 8 11 7 5 2 3 6 9 8 8 7 6 7 6 7 7 7 8 8 7 4 3 3 3 3 3 3 3 4 6 6 7 6 3 3 4 6 6 10
9 8 9 4 3 3 6 9 9 9 4 9 11 14 11 10 6 7 8 5 9 10 9 11 11 8 6 8 7 9 5 3 3 5 8 11 14 14 13 12 11 9 15 13 11 10 10 6 4 2 3 4 5 4 4 4 3 4 5 6 6 8 9 10 9 8 7 6 4 3 3 4 4 6 7 8 9 8 6 5 5 2 3 6 7 4
9 7 9 6 4 5 3 5 7 10 6 7 14 9 11 8 10 4 4 9 6 8 7 8 9 10 6 5 5 5 8 11 11 10 9 8 10 11 10 10 11 12 10 10 12 10 9 9 7 7 6 6 8 11 12 11 13 12 12 10 10 10 10 9 9 10 9 8 7 6 6 6 6 5 7 6 6 5 7 6 5 3 3 4 4 4
4 7 6 6 6 7 5 5 8 10 5 10 10 7 10 10 4 6 7 5 5 5 10 8 5 9 9 9 8 8 9 11 10 11 11 10 10 10 11 11 10 10 12 11 13 13 11 11 13 11 10 10 8 6 6 5 6 7 7 8 10 10 8 8 7 6 6 6 6 6 6 6 6 5 4 5 5 6 7 6 4 3 2 5 4 9
15 7 7 8 10 6 6 7 8 6 8 8 8 8 8 4 3 4 7 10 13 14 13 13 11 12 10 8 9 9 9 10 12 11 13 13 13 14 14 11 10 11 13 14 15 15 13 16 13 12 8 6 6 6 7 7 9 8 8 10 11 9 8 7 6 5 4 4 4 5 5 5 6 6 5 8 9 7 8 8 7 7 7 3 9 11
14 11 8 5 5 8 6 6 8 6 9 4 10 5 3 10 18 16 17 14 12 12 11 12 13 11 9 10 9 8 9 9 10 12 15 16 17 16 17 15 11 13 15 16 19 21 20 20 17 17 14 12 9 9 8 5 6 5 6 6 6 6 7 8 7 7 7 8 8 9 10 8 9 10 10 10 9 9 8 8 9 7 4 11 11 11
9 10 7 7 7 8 5 4 7 11 10 11 6 12 19 17 17 14 13 12 10 10 8 11 12 12 12 10 12 10 9 9 11 13 14 16 17 17 16 16 15 14 15 16 18 18 16 15 15 14 14 14 12 14 7 6 4 5 7 5 5 7 8 7 8 8 8 8 7 9 9 9 7 6 6 6 8 9 8 8 8 11 9 12 12 12
11 12 12 5 5 10 10 12 19 17 15 11 13 16 16 17 14 12 10 6 6 8 10 9 9 11 11 12 11 12 12 10 13 14 14 16 16 16 16 15 14 12 15 18 17 17 18 15 17 15 11 9 8 7 6 6 6 5 5 6 6 7 7 7 6 6 5 8 10 8 7 6 8 8 11 12 3 5 11 10 9 9 8 9 12 11
5 6 10 3 5 4 6 14 17 15 8 10 16 16 17 16 14 12 7 6 7 7 7 7 8 8 8 10 10 12 14 13 13 14 15 15 15 16 17 16 16 16 15 15 17 18 20 19 15 13 10 11 9 6 6 7 8 9 8 8 9 8 8 9 10 11 10 9 7 6 5 6 7 11 5 9 9 9 7 7 8 11 11 12 12 13
8 7 8 9 8 8 7 17 21 13 10 14 18 16 15 15 15 13 12 11 9 9 8 7 6 7 7 9 10 11 14 13 13 13 15 16 15 15 15 15 13 13 14 15 17 17 17 13 14 12 11 11 10 9 8 7 7 7 8 7 7 8 10 10 7 11 10 11 9 9 7 10 10 8 10 12 13 12 9 7 8 7 6 3 4 14
10 11 11 11 8 6 13 14 14 15 15 18 11 14 16 16 13 13 12 12 12 12 12 12 12 10 10 9 10 11 14 14 13 12 14 15 15 15 14 14 12 12 13 14 13 11 15 15 12 11 11 11 10 10 9 8 7 7 8 10 11 12 14 15 14 9 10 11 12 12 14 14 16 7 13 13 14 14 13 13 15 11 4 2 6 8
11 7 9 7 3 7 13 12 6 3 5 6 11 13 13 12 14 14 13 14 13 13 13 14 15 14 14 14 13 15 15 16 16 15 17 16 15 15 16 16 15 14 12 11 13 14 13 13 13 13 13 12 9 9 9 9 9 9 8 8 9 10 11 11 12 11 10 9 9 10 8 7 5 11 11 12 13 13 14 13 18 20 18 10 11 15
Wind_Speed
3 4 5 7 8 9 6 1 1 2 3 4 5 7 8 11 10 3 10 9 5 7 6 5 5 4 4 6 6 7 6 11 18 15 9 10 10 10 12 14 15 15 13 11 11 10 11 10 8 6 9 8 10 10 10 9 8 7 7 8 7 6 6 7 7 6 5 5 5 4 7 7 6 7 6 6 6 6 6 5 6 4 4 5 5 3
3 5 8 9 9 9 6 2 2 4 4 3 4 7 9 8 9 5 5 3 6 5 1 4 1 4 4 3 6 3 8 11 16 14 14 12 10 9 11 14 15 11 8 12 9 9 10 8 7 6 9 8 12 9 11 10 9 7 6 7 6 5 6 7 7 7 5 4 6 5 6 6 7 7 7 5 6 6 6 6 5 4 4 5 5 5
6 8 9 11 8 5 1 1 1 3 4 4 3 6 6 7 4 6 7 6 5 2 2 2 5 6 4 7 7 3 7 9 15 16 17 16 12 9 9 12 12 10 12 13 12 9 10 9 7 7 9 9 11 10 11 10 9 8 6 6 6 6 6 6 4 5 4 2 3 5 5 7 5 4 6 6 5 4 6 5 5 5 4 3 2 3
4 8 11 11 5 5 0 1 4 4 2 2 4 3 6 7 2 1 1 6 4 4 1 2 5 7 5 4 5 0 4 1 6 14 15 13 15 13 13 15 14 13 13 16 15 13 12 10 8 7 9 9 9 9 9 10 10 8 6 6 6 6 5 4 4 8 6 7 8 8 8 7 8 7 6 5 6 6 7 6 4 4 4 4 4 3
11 7 5 5 5 3 2 1 1 0 3 3 3 4 4 8 3 4 3 1 1 3 2 3 4 7 4 5 5 3 3 8 4 6 6 6 12 12 10 11 16 16 13 14 12 11 10 11 10 9 9 9 10 9 9 9 9 7 8 7 7 6 5 4 7 9 8 9 9 8 7 8 7 6 6 7 6 5 5 5 5 4 5 5 5 4
10 5 7 6 4 4 3 1 1 1 1 2 4 7 8 6 4 0 1 5 4 4 2 5 1 4 6 6 7 6 3 6 6 7 6 5 7 16 15 14 11 12 10 16 15 15 11 11 8 7 8 10 9 9 7 8 9 8 8 8 6 4 4 6 7 8 8 8 9 8 8 8 7 7 7 7 7 6 6 5 3 5 5 5 4 4
7 4 4 4 3 3 2 1 1 4 4 0 4 2 4 8 7 3 3 1 1 1 3 4 4 3 5 5 5 6 2 5 3 5 4 5 7 14 14 13 11 12 8 10 12 13 11 11 10 9 9 9 9 8 6 7 9 9 9 9 8 5 5 6 6 7 8 7 7 8 8 8 8 8 3 4 6 7 6 6 6 6 5 5 5 4
2 1 3 5 1 1 1 1 2 2 2 3 1 4 6 8 5 2 2 0 2 1 2 3 6 3 3 8 6 3 3 5 3 6 6 5 7 14 11 13 11 15 14 15 13 12 12 13 14 13 11 10 10 8 7 7 8 10 11 10 8 4 5 5 6 7 8 8 7 8 7 7 6 7 8 8 7 7 6 7 5 5 4 4 4 4
3 4 5 2 1 1 2 2 4 5 4 3 4 5 3 3 5 6 4 3 3 3 4 2 1 1 2 6 8 7 6 3 4 5 5 3 0 6 11 9 8 5 6 7 8 8 8 9 10 10 10 8 9 8 9 8 7 7 9 10 7 5 4 5 6 7 7 7 8 8 7 6 6 8 8 7 7 7 7 7 5 6 5 6 5 5
2 4 5 5 4 1 4 4 7 6 4 5 3 1 2 4 5 7 6 4 2 3 2 1 1 2 3 3 3 3 2 6 5 6 7 11 15 12 15 11 9 11 10 11 13 12 12 13 11 10 9 7 7 6 6 4 5 5 5 6 9 6 5 6 6 7 7 7 8 8 7 9 8 8 7 7 7 6 7 8 7 7 7 6 6 5
4 3 4 3 3 3 2 4 6 10 10 5 1 5 2 1 3 4 3 1 5 1 3 2 5 1 3 3 1 2 3 4 4 4 5 9 8 8 8 7 6 9 9 8 9 10 11 11 11 9 10 9 6 6 7 6 5 2 1 8 4 6 6 7 8 7 9 7 7 7 9 10 10 9 9 8 7 7 7 8 7 7 6 6 6 6
4 1 2 2 6 1 1 5 5 6 4 4 2 2 6 6 3 1 2 2 1 2 1 1 3 4 4 3 5 3 2 5 5 8 8 9 9 8 8 9 9 9 8 9 7 3 4 4 4 8 8 7 7 5 5 5 6 6 0 3 9 5 8 8 8 7 9 8 7 7 10 10 10 10 9 10 9 8 8 7 8 7 7 6 6 5
8 4 2 3 5 8 3 1 6 5 2 1 3 4 3 2 3 2 2 2 1 3 1 4 5 3 2 5 6 1 3 1 6 9 8 10 10 9 10 9 12 11 9 9 8 7 7 4 6 5 7 6 7 7 7 8 7 7 6 4 10 10 10 10 9 8 9 7 7 7 10 8 9 9 10 9 8 7 8 7 8 8 7 7 6 5
5 4 3 2 5 4 3 3 1 3 2 3 3 2 2 1 0 0 1 1 1 4 3 2 3 1 3 2 4 2 4 5 7 7 10 10 9 8 8 10 11 11 10 8 7 7 5 5 1 7 7 8 7 8 9 7 7 7 6 6 5 3 8 10 9 7 8 7 6 5 8 8 8 9 9 8 8 7 7 7 8 8 7 7 7 6
1 4 5 1 1 5 2 5 6 2 2 5 4 7 7 4 3 1 1 1 2 3 3 1 2 2 3 1 4 0 5 9 11 10 8 8 9 9 10 12 12 11 8 7 7 6 5 5 3 3 7 8 9 9 8 7 7 8 9 6 6 2 6 5 8 6 7 7 5 3 6 7 7 8 8 7 7 7 8 7 8 7 7 7 6 7
6 4 5 7 5 8 6 5 6 2 2 1 3 3 4 4 5 2 3 2 3 1 2 3 2 4 2 4 3 1 6 10 9 10 10 7 10 11 11 10 10 9 8 8 6 4 4 4 6 5 4 6 9 9 7 7 6 6 6 8 5 2 5 8 7 3 3 4 2 2 5 6 7 7 7 6 6 6 6 7 8 8 7 7 7 6
1 3 2 2 16 8 1 2 3 3 1 3 4 1 3 6 8 1 1 2 4 4 3 3 2 0 2 1 4 1 5 6 9 7 8 8 10 12 10 8 8 7 7 5 4 4 2 5 6 7 6 7 7 9 8 7 7 7 7 9 8 9 9 6 5 5 5 2 1 1 2 5 6 8 8 7 6 5 5 6 6 8 8 7 8 7
3 6 7 5 4 4 3 2 2 1 3 2 2 4 2 1 4 4 3 0 2 2 3 2 3 1 2 3 3 2 5 5 8 6 10 10 12 11 9 8 7 7 6 5 6 6 7 7 7 6 6 6 6 8 9 12 10 9 8 11 11 7 6 9 6 1 3 2 5 5 2 2 4 6 6 7 7 5 6 5 5 7 7 8 8 8
3 4 4 5 5 3 0 2 1 2 2 1 7 1 2 2 0 3 2 0 0 0 1 2 3 1 1 3 2 4 4 5 7 9 12 11 10 11 10 10 8 7 5 6 7 7 6 6 6 7 7 8 9 5 4 9 10 11 10 13 14 15 9 8 6 6 4 5 6 3 5 3 4 4 5 6 6 5 6 6 5 6 8 7 7 7
1 1 4 6 6 6 7 5 1 3 4 6 4 5 1 3 3 1 5 3 5 2 0 4 1 0 1 3 4 8 1 5 3 5 9 11 12 11 8 8 8 6 4 5 6 5 5 6 6 7 8 8 8 9 9 7 3 3 7 14 14 13 11 8 6 6 4 1 8 7 6 4 4 4 5 5 7 6 5 6 5 5 7 8 7 7
2 3 1 4 8 8 3 1 4 3 2 6 3 2 3 2 1 2 1 0 2 2 2 1 2 3 7 3 5 2 6 7 5 3 5 7 9 10 9 9 7 7 5 4 4 4 5 5 5 6 6 7 8 8 8 8 9 10 8 9 14 15 13 10 6 6 7 4 2 6 6 5 4 4 4 5 7 5 4 4 5 5 5 7 7 7
1 2 2 3 5 4 5 6 5 3 4 0 1 2 5 2 7 7 9 5 1 2 1 2 2 3 5 2 4 1 4 3 6 12 7 8 8 8 9 8 8 7 6 5 4 4 5 4 5 6 6 6 8 8 9 8 10 11 11 8 5 10 13 11 6 2 4 2 1 2 5 3 3 3 4 6 5 5 5 5 5 4 4 4 4 8
2 1 3 1 3 5 8 11 9 8 6 3 4 1 4 3 6 3 4 5 4 1 3 3 2 4 5 3 3 6 6 3 8 13 10 7 8 9 7 7 6 6 6 5 4 4 3 4 5 6 6 6 6 6 6 8 8 8 8 10 9 8 5 5 7 4 2 3 6 7 8 8 7 7 7 7 6 6 6 5 6 6 6 4 4 2
5 2 2 3 3 6 9 9 10 9 9 4 0 2 2 1 1 2 1 4 2 1 2 0 0 1 4 4 7 3 6 2 9 11 10 8 6 7 8 7 6 6 5 5 5 4 4 5 5 5 5 6 6 6 6 5 6 7 8 8 9 10 10 9 6 4 2 2 5 4 7 7 7 8 6 6 5 5 4 4 4 4 4 3 1 1
1 2 4 1 2 5 7 5 7 8 7 4 3 3 3 3 4 3 3 3 2 1 3 4 1 0 3 1 2 3 7 9 9 6 9 10 6 8 7 6 6 5 5 5 5 5 5 5 5 5 5 6 6 5 5 6 6 6 7 7 8 7 6 7 6 7 6 7 3 2 7 3 0 5 8 9 8 6 4 5 6 4 3 3 1 3
2 0 2 1 1 0 1 2 3 5 6 3 3 5 4 3 4 7 2 4 2 4 4 2 1 2 2 5 6 6 8 9 5 5 6 7 6 6 6 6 6 6 5 5 4 4 5 5 5 4 5 5 5 6 5 6 5 6 6 6 5 7 6 5 5 5 5 5 4 3 3 1 1 2 2 3 2 3 4 4 7 8 6 4 4 3
0 1 2 2 2 4 5 2 1 6 4 4 7 7 5 4 6 3 2 2 1 1 3 2 6 4 0 2 5 5 6 7 5 6 6 4 4 6 5 4 4 5 5 5 5 5 5 5 5 6 5 5 4 5 5 6 6 6 6 6 6 6 6 6 6 5 6 5 5 4 3 3 2 3 3 3 4 3 1 2 3 7 8 6 7 9
1 1 1 2 2 3 4 8 7 5 5 4 5 5 4 5 2 3 1 3 3 5 5 0 5 3 4 3 3 5 3 2 6 3 5 6 4 3 6 5 5 5 4 5 6 7 5 4 5 5 4 5 4 4 5 5 5 5 5 5 4 4 5 5 6 6 6 6 6 4 4 4 4 4 4 3 2 2 2 2 1 2 2 4 6 5
3 1 2 1 3 4 5 7 7 8 7 6 5 3 4 4 6 5 4 5 2 3 8 2 1 2 2 1 1 3 4 4 4 9 7 10 7 4 4 7 8 5 5 6 5 5 5 5 5 6 6 6 7 6 5 5 5 5 5 4 4 3 3 4 5 4 5 5 4 4 4 4 3 2 3 3 3 4 3 4 4 5 5 5 6 6
3 0 1 1 3 3 5 7 7 7 5 6 5 5 5 5 4 3 4 3 2 1 3 2 1 1 4 4 4 1 4 5 7 6 2 1 5 6 2 1 1 1 5 8 6 7 6 5 5 5 5 5 5 6 6 5 5 5 5 3 2 2 1 3 4 4 4 5 5 4 4 4 4 4 3 3 3 3 3 5 6 6 6 7 7 6
3 1 4 2 3 3 5 8 8 8 7 6 6 5 6 4 6 3 3 5 5 3 3 5 6 4 3 3 7 7 9 9 11 11 8 6 7 3 3 6 6 3 9 9 5 8 8 6 5 5 6 6 5 5 3 3 4 4 4 4 4 4 2 3 4 4 4 4 4 4 4 4 5 4 4 4 3 3 4 4 5 5 6 5 5 5
1 1 1 1 2 2 2 3 4 6 8 6 5 4 3 4 4 3 3 1 5 2 6 9 10 5 7 7 3 5 9 10 8 8 8 7 8 10 11 5 2 6 13 11 1 5 8 8 7 6 6 5 4 3 3 4 1 5 4 2 1 2 3 3 1 1 0 1 1 1 2 4 4 4 4 4 5 4 4 4 4 4 5 4 4 5
2 1 1 1 0 2 3 4 7 7 9 9 5 3 4 1 1 3 2 5 4 4 8 4 0 2 4 5 8 8 7 7 8 7 6 9 9 10 8 8 8 10 9 8 12 10 10 10 9 8 7 6 7 6 7 6 6 4 4 4 2 3 3 3 3 2 2 2 3 3 2 0 0 1 1 0 2 3 2 2 1 1 1 4 7 6
1 1 0 2 2 1 0 4 5 6 2 3 1 6 6 2 4 5 3 5 6 6 1 2 3 4 7 9 9 5 6 5 6 6 7 7 8 8 9 9 11 10 12 10 6 9 8 5 6 8 7 6 4 4 3 4 3 3 2 3 3 1 0 1 3 1 3 1 0 1 1 1 1 1 2 3 4 4 3 3 2 1 2 3 2 2
4 2 1 1 1 1 2 4 4 3 6 0 7 9 9 7 6 7 6 10 9 9 9 12 11 10 10 9 8 6 5 6 7 12 10 8 5 6 8 8 9 13 11 8 6 7 8 5 5 6 7 6 4 3 4 5 2 2 0 1 2 0 0 2 2 2 2 1 0 0 0 0 1 3 2 3 4 4 3 1 2 3 4 4 3 2
3 3 1 1 3 1 2 1 1 4 2 3 6 10 7 5 7 6 7 12 11 8 7 7 6 6 7 9 8 7 5 3 8 11 11 11 11 8 8 7 7 10 9 7 8 7 5 4 4 5 5 4 4 4 4 4 4 3 3 1 1 1 1 1 4 2 2 2 2 0 1 1 1 2 2 2 2 2 1 1 1 2 3 2 4 5
4 3 3 2 2 3 3 5 7 2 5 9 5 6 4 4 3 2 3 6 9 8 7 4 6 7 8 8 8 7 7 5 7 7 10 10 8 9 8 8 7 7 6 5 3 2 1 2 1 2 3 4 3 1 2 2 3 3 3 4 5 3 2 3 4 3 1 2 2 2 3 2 2 2 2 1 1 1 1 0 1 3 1 3 4 4
7 7 3 5 2 5 3 0 2 1 3 0 0 2 4 4 3 4 2 1 8 10 9 6 7 7 8 8 10 8 5 9 8 7 8 9 8 8 8 7 7 7 5 5 6 3 3 4 2 4 6 3 3 2 3 4 3 2 2 3 4 4 5 4 3 4 4 5 4 4 4 2 2 2 2 2 2 1 0 0 0 1 1 2 4 5
5 2 6 9 3 3 2 2 2 1 1 0 4 5 6 6 5 4 2 2 6 7 7 7 8 7 6 7 7 7 8 6 3 5 7 9 10 10 10 11 10 7 6 4 4 5 4 4 4 1 3 4 2 1 1 2 2 2 3 3 4 4 4 5 6 4 2 1 0 0 1 1 0 1 2 2 1 1 1 1 2 2 1 3 3 4
7 5 5 4 1 2 2 2 3 0 2 4 6 6 7 8 5 5 1 0 6 8 6 7 6 6 5 7 5 6 6 3 5 6 4 6 6 6 7 8 9 10 7 6 3 1 1 3 4 4 3 1 2 2 3 4 4 5 4 4 4 4 5 5 5 5 5 3 2 2 2 2 2 2 2 3 4 4 4 4 1 1 1 3 3 4
4 3 4 2 2 1 3 2 3 1 1 4 6 10 7 6 3 2 2 2 5 6 5 7 7 5 4 5 4 4 1 0 2 3 4 6 8 9 8 5 4 5 9 8 7 7 5 3 2 1 2 3 3 3 3 3 3 3 3 4 3 5 6 6 6 5 5 4 3 2 2 3 3 4 4 5 5 5 4 3 3 1 0 2 4 2
5 2 3 3 2 1 1 2 1 2 2 3 7 4 6 3 3 0 1 4 3 5 4 5 5 6 5 2 2 2 4 6 7 7 7 6 5 5 5 6 7 7 6 6 8 6 6 6 5 5 4 4 5 5 5 6 6 5 5 5 6 6 6 5 5 5 6 5 5 5 4 5 4 4 4 4 4 4 4 4 3 2 1 0 2 2
1 2 2 3 1 2 1 1 2 2 1 6 6 4 5 3 1 1 3 2 3 3 7 6 3 4 6 6 5 5 6 7 7 7 7 7 7 7 8 7 7 6 6 6 8 8 7 6 6 6 6 6 5 4 4 4 5 5 5 5 7 6 5 5 4 4 4 4 4 4 4 4 4 4 3 3 3 4 5 4 3 2 1 0 2 5
8 2 1 3 1 2 3 3 2 2 4 1 3 2 3 1 1 3 4 6 7 7 6 6 6 6 5 4 5 6 5 5 6 7 8 9 9 9 9 8 5 6 8 9 10 10 10 10 8 8 6 4 3 3 4 5 5 5 4 6 7 5 5 5 4 4 3 2 3 3 3 3 4 4 4 4 5 5 5 5 5 4 4 2 5 6
6 1 0 2 1 2 1 1 4 3 4 1 4 3 1 8 10 6 6 3 5 6 4 5 6 7 6 5 5 5 5 5 5 5 5 6 8 9 10 10 8 6 5 6 8 11 13 12 11 11 10 8 6 5 4 4 4 4 4 4 4 4 4 4 4 4 5 5 5 5 5 5 5 5 5 6 6 6 5 5 5 4 3 6 6 7
1 2 4 3 1 2 0 2 4 7 6 7 4 8 12 8 7 8 6 5 4 4 4 4 4 5 7 6 6 4 4 5 6 6 7 8 8 8 8 9 9 8 8 7 7 8 8 9 10 10 9 9 7 6 4 3 2 2 3 1 1 2 4 4 4 4 5 5 5 6 5 5 5 5 5 5 5 6 5 5 5 6 6 7 7 7
3 4 4 1 2 5 2 8 12 8 6 6 8 9 8 8 6 6 5 3 4 4 5 4 4 4 4 5 5 5 6 5 7 7 6 7 8 8 8 9 9 8 7 7 7 7 9 9 10 10 8 6 5 4 4 4 4 3 2 3 3 3 3 4 4 5 4 4 4 5 4 4 4 5 6 5 1 3 5 6 6 5 4 6 7 6
1 1 3 1 3 2 0 9 8 5 4 6 8 8 10 9 8 5 3 3 4 3 3 4 4 4 4 4 4 5 6 5 6 7 7 7 7 7 8 8 9 9 7 6 7 7 8 9 9 8 7 7 6 4 4 4 4 4 4 4 4 4 4 4 4 5 6 6 5 4 4 4 4 4 0 5 5 5 4 4 4 7 7 7 7 7
1 3 2 3 2 3 4 11 9 7 5 8 10 9 7 6 7 6 7 7 6 5 5 4 3 4 4 5 5 5 6 6 6 6 7 7 7 7 7 8 8 8 7 7 7 7 7 5 8 8 7 7 6 6 5 5 5 4 4 4 4 3 4 5 5 4 5 6 5 6 4 5 5 4 5 6 6 5 4 2 3 4 4 0 3 8
5 4 2 6 4 3 4 4 6 5 6 10 7 7 8 8 7 8 7 8 8 8 8 8 8 7 6 6 6 6 8 8 8 7 8 7 7 7 7 7 7 7 7 6 5 5 7 7 7 6 7 7 6 6 6 5 5 4 4 4 5 5 6 6 6 6 5 5 7 7 6 6 7 3 7 7 7 8 6 9 11 6 3 1 4 5
5 2 3 2 2 2 4 4 3 1 2 3 6 7 7 5 7 8 8 9 7 7 7 8 9 9 9 9 8 9 9 9 8 8 9 8 7 6 6 7 7 6 7 6 6 6 6 8 9 9 8 6 5 5 6 6 6 5 5 4 4 4 5 5 6 6 6 5 6 7 5 4 3 6 5 5 6 7 8 6 10 15 14 7 7 10
Wind_Direction
148 169 217 224 229 232 237 204 256 322 357 331 337 327 316 333 310 73 125 179 132 130 176 214 208 217 238 207 208 184 131 110 138 140 147 158 153 157 152 151 158 165 175 173 170 175 179 182 187 143 143 146 137 132 133 134 138 143 143 139 140 149 141 134 134 140 143 139 134 116 125 126 113 101 91 85 85 83 85 78 83 96 109 130 166 179
152 188 237 230 224 223 207 131 22 13 18 335 338 338 333 333 317 1 89 114 66 92 305 2 347 289 311 279 256 130 124 127 150 147 155 160 166 171 160 154 159 156 153 159 167 172 178 172 176 141 146 147 142 147 140 144 149 150 141 142 151 147 153 153 158 162 160 161 161 147 134 126 124 111 102 92 75 88 86 81 68 59 82 115 134 160
208 216 237 232 229 232 211 113 68 80 8 6 29 322 325 302 311 337 75 85 69 58 299 358 6 310 336 325 328 136 148 155 160 159 163 162 177 179 168 151 151 154 154 166 169 165 168 168 163 147 148 152 150 151 144 147 146 147 146 152 157 166 165 173 158 139 145 109 107 112 132 119 97 90 116 118 118 96 87 80 76 69 58 58 59 103
229 259 238 237 194 195 241 26 43 25 27 352 325 357 287 274 2 302 335 68 29 87 267 21 15 307 320 354 330 57 135 197 154 142 161 165 170 175 171 156 155 159 156 165 171 171 172 170 160 150 154 153 149 152 143 150 150 152 151 157 164 176 177 154 141 112 107 104 103 108 118 108 114 129 124 108 98 93 89 87 79 66 83 86 70 53
211 230 231 167 162 156 146 89 16 54 331 294 226 240 282 295 322 61 274 330 99 355 89 53 14 325 332 352 328 303 37 134 128 116 141 166 169 173 158 149 153 166 166 165 166 166 161 169 168 162 158 148 152 158 150 154 152 155 155 163 170 178 170 147 130 118 119 106 97 102 94 99 90 83 96 96 99 110 117 95 71 80 70 71 72 81
239 210 139 137 152 171 103 84 204 132 308 305 261 220 236 255 305 163 342 50 18 342 309 114 18 301 293 290 268 260 84 156 169 148 173 182 112 139 157 163 162 165 159 161 165 172 167 163 153 156 158 154 153 158 156 155 152 148 154 159 167 170 147 139 135 132 123 123 128 124 122 122 123 120 113 124 134 120 106 117 122 85 75 71 68 60
209 210 138 129 81 43 55 67 263 126 205 252 271 285 239 259 262 260 293 65 97 150 272 112 133 268 327 307 284 292 276 214 217 109 140 115 118 144 154 158 161 158 147 156 164 166 153 158 160 162 165 165 158 164 153 153 151 150 156 160 165 164 150 147 143 135 126 123 130 135 136 140 143 139 136 134 132 124 129 115 111 117 106 104 99 82
35 300 110 99 141 127 231 290 281 206 150 258 242 314 329 319 318 292 271 91 232 200 356 139 132 180 301 292 279 249 261 230 134 112 118 121 120 132 153 162 162 170 170 166 165 166 165 165 165 169 173 172 170 166 153 156 155 155 159 161 156 152 147 159 149 138 141 140 141 136 141 143 139 133 136 135 133 129 130 123 114 90 74 75 87 84
155 147 131 120 105 130 214 206 242 196 206 214 224 215 238 355 347 338 336 254 224 179 280 310 291 106 247 266 272 291 310 97 125 126 116 100 247 97 156 151 142 109 123 147 158 162 167 170 177 171 173 176 166 161 167 173 163 152 156 153 137 149 149 170 157 147 154 150 152 149 148 140 143 134 134 130 127 128 122 107 99 93 84 68 58 73
237 164 195 154 125 212 217 230 252 248 215 237 213 86 62 24 346 323 319 336 13 62 300 278 303 247 282 267 286 330 247 168 173 149 134 81 92 97 118 150 139 146 163 168 168 165 173 176 179 177 165 156 162 151 157 151 154 120 107 129 138 157 167 173 170 158 165 165 158 152 149 146 142 131 125 121 129 123 119 120 118 113 101 91 81 73
232 129 119 108 157 199 238 239 236 246 224 179 164 278 51 112 221 276 262 67 44 49 251 227 282 182 267 278 241 62 247 187 141 107 115 99 91 102 107 116 138 154 159 164 171 173 168 173 170 157 169 163 133 145 147 143 120 70 180 137 105 169 175 178 178 170 175 176 170 154 153 150 145 139 133 128 132 126 120 123 129 126 122 112 99 91
282 92 164 186 166 244 313 308 309 305 333 72 62 66 36 343 329 12 326 36 112 273 262 253 271 251 229 296 310 254 182 131 134 137 121 108 103 89 86 93 91 95 96 97 91 96 162 129 144 169 169 146 145 140 143 136 126 130 100 184 142 214 186 183 184 181 181 180 177 152 156 152 150 144 141 143 149 146 138 137 130 126 115 110 105 92
279 256 175 224 169 181 209 351 309 295 316 317 49 50 71 302 30 326 25 348 203 202 243 23 31 13 283 228 215 149 76 69 136 142 119 113 103 87 85 83 73 79 74 74 84 81 70 118 153 181 181 140 150 156 165 160 142 132 135 223 176 190 191 187 186 185 185 183 182 156 158 155 148 145 144 146 146 148 143 138 131 127 127 128 115 116
288 279 266 235 143 187 140 144 276 298 320 137 160 139 117 218 247 243 267 188 307 306 291 326 17 230 223 302 274 242 128 50 79 79 104 105 106 110 95 78 79 76 70 64 63 63 66 66 80 194 176 168 162 172 166 155 141 140 142 185 250 232 197 187 187 186 182 190 187 160 159 154 144 146 145 147 148 152 147 141 139 138 142 141 145 141
352 348 295 2 237 170 173 182 175 188 241 209 189 163 179 150 146 199 123 176 199 218 268 286 92 269 2 243 290 193 89 95 92 91 81 83 74 74 80 82 81 79 75 69 58 51 52 37 52 91 182 181 166 164 160 152 154 147 150 171 197 257 287 210 191 182 183 185 195 163 157 151 141 143 142 148 151 151 146 146 141 142 143 141 149 145
215 229 225 206 149 166 187 199 198 212 274 307 252 124 91 210 137 152 195 136 223 252 357 327 188 181 170 250 313 347 80 88 98 102 103 73 82 86 78 74 76 81 84 81 70 48 20 33 31 34 56 171 155 150 149 151 141 137 154 159 169 112 318 251 196 193 179 177 181 157 149 151 137 139 138 140 145 153 150 149 145 148 150 149 144 144
178 247 280 187 150 180 72 32 297 102 133 270 15 81 214 183 116 117 360 211 87 51 257 198 306 313 292 335 255 164 106 102 100 108 97 91 91 90 88 81 74 68 67 77 115 121 103 53 45 40 43 76 123 147 162 163 168 168 166 159 174 186 205 274 32 35 22 357 25 34 134 145 136 138 144 147 158 154 157 150 146 145 155 146 142 146
143 259 304 326 154 149 173 187 48 33 113 62 324 248 302 127 131 123 197 72 126 149 255 169 221 167 139 269 282 159 152 142 130 125 102 98 94 92 94 90 88 81 74 82 78 67 53 37 31 30 34 42 104 147 164 180 180 175 175 166 185 194 80 109 126 177 80 53 53 3 319 167 145 140 140 148 160 156 140 151 144 131 139 151 153 148
41 343 305 300 334 346 161 158 74 334 90 243 242 239 41 357 350 321 92 303 158 173 251 277 204 128 177 282 293 251 182 173 147 125 115 109 102 99 97 98 92 79 71 61 56 59 55 56 57 54 49 43 26 31 108 138 153 163 175 195 183 175 154 149 161 135 146 135 127 162 238 197 165 152 146 146 161 152 139 152 151 139 148 142 140 138
53 172 299 330 351 345 355 80 194 294 315 241 237 322 200 132 182 154 185 190 119 236 84 303 17 282 254 170 252 298 33 27 37 111 124 124 120 113 112 115 113 109 97 68 77 72 71 69 64 57 58 50 48 44 27 20 38 95 126 146 150 150 148 146 145 138 134 183 165 177 186 172 173 175 168 148 159 156 148 150 147 139 132 149 143 144
342 116 253 288 341 8 344 19 183 160 271 11 41 328 7 7 194 100 342 235 156 185 167 199 32 311 283 294 345 349 91 116 89 92 82 105 105 108 113 115 116 116 105 99 93 89 87 84 76 69 62 61 57 44 36 42 43 33 19 116 129 131 137 141 156 136 166 152 193 168 153 160 148 142 133 130 144 142 139 137 132 145 153 135 144 143
67 10 193 306 346 323 264 280 330 352 125 176 153 185 181 86 46 34 310 323 55 93 176 113 227 246 263 336 342 61 71 51 88 89 108 107 105 106 108 106 117 119 127 123 114 104 101 91 86 82 70 64 60 51 50 46 49 42 49 55 78 124 142 146 143 125 138 113 6 140 97 82 78 90 90 84 85 115 128 123 106 107 86 97 130 155
136 172 97 296 238 259 292 309 322 326 331 247 116 174 111 152 124 143 207 260 297 265 142 143 110 273 246 320 309 8 349 74 111 130 122 112 109 106 96 98 96 109 123 133 130 127 115 97 94 93 86 80 75 77 70 60 56 58 54 65 80 75 57 102 137 163 155 144 135 116 101 92 87 78 63 67 60 68 62 59 63 69 78 68 58 95
20 79 23 302 301 311 320 320 312 315 314 326 333 70 42 19 125 143 205 214 183 280 36 355 136 258 295 343 359 295 289 44 108 115 112 101 105 99 104 99 91 85 88 97 103 100 99 100 90 81 84 79 73 70 72 72 70 70 67 69 75 79 85 82 78 55 32 39 44 58 84 85 95 85 87 79 88 98 114 111 90 89 92 105 116 107
71 294 128 264 355 340 334 322 340 353 35 35 338 360 64 48 46 109 64 30 52 229 144 108 248 283 279 244 271 13 24 76 94 81 109 118 120 119 113 107 108 107 107 114 121 130 121 113 104 99 90 88 86 84 72 71 76 75 76 77 75 81 92 101 102 101 101 96 97 61 91 126 282 146 147 147 143 139 156 146 124 114 113 98 36 4
105 225 78 117 179 189 285 70 351 335 350 328 350 355 13 14 65 34 29 16 55 315 44 105 106 248 287 5 22 2 42 60 72 82 91 107 117 111 108 114 126 134 148 145 148 141 153 154 140 124 118 109 105 95 87 83 78 76 76 70 83 93 94 99 98 104 102 99 87 80 93 90 85 39 59 63 72 132 144 133 129 131 130 134 142 176
98 22 114 153 161 200 218 247 301 1 340 355 320 326 314 8 12 42 114 104 213 222 359 228 155 220 79 27 51 16 33 87 109 106 100 71 91 111 115 125 143 144 138 114 100 100 85 76 119 144 139 132 129 117 103 97 92 86 77 71 69 82 92 92 96 99 100 98 102 84 55 83 113 136 157 171 190 208 188 148 147 152 161 168 179 201
67 29 310 12 299 251 304 311 320 324 296 296 325 298 339 338 12 24 105 249 152 58 329 277 109 114 201 152 158 103 62 39 108 98 78 56 54 106 144 155 153 131 111 101 94 82 75 69 59 70 109 124 121 114 111 109 103 98 99 97 82 77 86 98 102 104 107 109 110 111 122 124 118 107 116 138 163 214 187 159 136 121 155 198 214 219
138 141 266 222 283 292 289 287 289 296 289 285 277 298 313 334 359 341 275 240 231 219 224 208 105 333 254 182 166 108 124 89 48 160 173 140 155 198 178 152 160 154 143 131 122 105 93 80 67 58 69 84 86 87 95 100 92 88 82 88 97 97 117 122 108 107 112 115 131 162 167 173 178 159 165 158 159 170 200 200 197 191 188 198 219 224
85 219 237 273 305 342 338 341 334 319 316 319 318 325 321 327 314 336 307 333 52 230 222 205 94 81 40 23 48 119 93 89 50 59 28 38 150 148 162 40 55 4 167 157 143 132 116 99 74 72 55 53 91 108 104 90 100 116 124 136 136 106 204 106 139 140 142 152 170 170 169 173 177 179 166 169 182 208 194 195 201 202 200 208 214 217
93 282 122 61 51 342 343 323 313 304 310 305 307 333 340 359 13 5 67 11 10 355 2 65 63 46 335 332 42 52 48 55 57 54 60 44 8 348 187 145 182 67 339 310 162 143 132 127 113 86 80 76 64 60 74 123 134 116 123 137 145 164 189 95 100 117 137 181 191 187 186 168 188 181 176 192 206 229 222 212 214 208 214 220 216 223
80 243 51 82 57 313 279 275 315 3 5 356 342 350 27 34 29 9 43 298 84 34 31 45 45 16 312 342 11 39 66 60 62 57 39 20 9 25 32 345 280 175 195 218 123 148 139 141 137 111 99 88 74 68 50 40 47 134 127 89 99 112 104 83 86 90 119 158 149 180 152 175 181 184 206 209 223 230 240 246 232 231 235 226 232 239
158 123 72 85 246 244 269 1 353 10 11 2 337 348 354 317 73 65 46 47 68 103 59 67 83 309 336 4 40 24 44 54 62 54 34 22 42 48 44 50 34 1 261 209 171 164 158 149 134 112 81 57 45 50 34 41 54 60 78 69 91 102 103 158 186 204 217 229 200 209 188 193 27 345 351 34 108 129 119 113 103 105 164 209 223 227
34 114 215 144 165 236 57 41 29 30 341 242 297 18 13 318 111 86 61 43 42 63 126 140 116 18 17 18 22 28 68 78 73 49 63 81 57 42 45 44 32 22 40 50 43 67 52 70 87 100 103 100 102 71 66 81 94 81 44 13 345 119 255 239 217 168 192 214 171 135 118 115 109 75 92 88 64 56 37 37 1 313 308 330 349 175
200 122 213 140 114 237 46 41 31 268 235 207 35 18 11 23 61 114 86 54 36 34 46 42 29 32 37 44 35 24 26 18 47 48 41 40 72 76 57 38 41 39 26 34 55 83 91 83 82 87 81 80 74 66 30 355 329 151 60 274 291 249 7 321 328 262 203 144 290 338 73 93 138 128 117 76 68 50 36 24 360 347 328 335 322 308
154 148 204 221 150 76 65 111 147 225 271 76 62 30 354 41 12 51 42 35 36 42 67 65 56 45 42 38 21 8 1 20 63 51 40 32 27 33 41 34 47 66 60 24 16 13 44 53 86 93 97 94 70 43 56 33 4 29 347 358 245 203 144 261 286 287 193 190 226 236 258 216 176 139 98 89 70 62 15 348 320 320 310 343 331 328
185 179 131 241 109 165 171 158 211 333 338 6 1 8 12 38 355 46 108 33 7 17 25 51 42 37 37 30 14 5 355 10 49 26 26 22 21 24 30 23 45 57 103 127 91 302 150 126 112 128 114 102 115 87 56 32 24 2 345 337 330 345 296 256 244 261 258 209 208 220 254 234 154 138 142 133 130 177 242 328 335 324 318 341 318 314
192 195 199 133 249 133 136 99 347 23 264 257 197 16 3 3 19 351 92 83 7 359 5 29 44 32 35 22 12 357 12 50 34 356 356 9 12 8 10 13 25 29 54 144 174 175 349 321 113 109 114 106 69 73 18 360 325 357 4 324 320 329 316 334 302 289 278 262 245 218 212 199 182 177 181 164 175 201 228 243 345 296 267 285 288 295
42 119 142 146 180 96 110 134 189 195 231 202 322 359 343 333 2 319 71 53 334 338 1 22 28 26 34 23 0 12 37 46 13 350 339 1 4 7 13 6 359 12 2 26 33 7 10 360 339 29 95 97 96 20 25 312 333 351 340 317 312 314 313 300 294 285 271 259 224 98 96 99 109 144 141 146 197 190 241 253 248 244 293 302 296 285
61 32 29 45 82 133 134 137 228 83 87 350 345 345 330 321 7 64 298 283 337 321 348 14 15 20 22 16 22 25 70 47 321 286 324 356 357 5 14 353 347 340 348 345 25 111 3 25 25 10 357 353 255 252 271 264 254 240 224 239 242 262 270 264 261 269 285 286 284 285 293 310 280 238 215 216 228 227 220 218 194 246 309 299 300 306
8 353 54 61 40 356 161 222 97 73 5 1 323 313 337 327 37 81 211 313 295 306 345 13 354 352 28 13 29 11 325 175 276 304 356 357 357 348 341 335 325 340 332 335 324 338 339 333 308 234 239 241 257 263 250 234 215 223 216 216 222 243 242 248 261 270 268 268 264 253 243 244 225 232 237 221 216 213 214 195 189 207 341 320 316 5
5 50 327 52 22 39 47 87 163 109 256 260 293 326 347 355 47 268 239 215 254 304 351 343 338 326 342 7 33 15 335 348 352 355 351 343 332 313 316 319 325 325 321 315 321 322 313 305 303 293 286 266 273 276 273 270 266 262 260 247 237 235 233 235 237 241 253 256 254 253 253 251 255 226 223 220 198 188 197 197 170 166 177 342 34 71
338 66 311 3 291 60 71 85 24 358 242 182 275 346 31 74 215 197 239 268 285 337 350 319 329 350 25 10 6 8 2 352 351 343 342 341 336 323 318 319 314 313 313 319 319 317 315 310 299 286 271 265 257 249 233 218 222 225 222 221 230 231 227 226 222 228 233 242 250 254 253 256 254 256 248 247 215 191 203 208 188 190 124 174 86 105
3 66 347 52 30 73 22 44 84 184 253 259 63 76 304 159 291 354 3 6 18 28 14 1 6 4 4 26 2 355 348 348 342 343 345 339 337 330 324 316 324 337 334 325 319 311 309 304 302 293 285 269 258 265 281 277 272 260 246 244 246 239 226 220 234 242 249 257 257 263 268 257 257 259 267 257 245 220 213 215 198 185 183 125 120 124
346 103 203 119 325 93 115 169 221 194 219 134 133 187 122 40 40 44 52 48 33 7 360 10 344 347 354 354 359 348 341 336 329 333 337 322 324 324 322 317 314 314 316 320 321 324 320 306 293 290 282 274 271 268 266 251 242 242 250 249 246 254 257 252 247 241 248 254 258 259 259 258 250 248 250 247 230 225 219 219 194 167 136 129 131 132
36 25 359 75 348 76 154 130 47 29 17 12 23 50 52 34 25 33 29 10 8 349 357 348 328 346 347 351 355 339 338 322 330 320 318 314 312 308 308 310 314 319 321 321 320 321 318 320 324 320 310 299 295 295 292 284 242 249 248 262 270 271 272 274 263 246 232 228 226 233 236 241 248 241 239 246 243 234 213 186 159 151 155 133 138 140
19 19 59 96 297 62 289 26 36 12 1 20 37 33 40 45 30 10 3 15 342 337 336 327 347 342 347 351 334 330 322 326 315 304 300 303 302 300 299 299 298 295 296 302 309 319 316 315 308 303 305 310 312 326 331 332 328 305 290 312 306 314 315 306 287 265 246 242 255 260 245 230 247 260 263 280 327 95 113 122 118 117 123 124 136 144
339 49 40 45 56 101 203 46 10 348 353 29 38 25 8 358 358 355 341 348 316 313 315 327 350 341 338 327 311 309 301 299 294 292 294 290 288 288 291 292 295 301 301 303 305 307 308 309 306 303 302 298 292 286 289 288 289 288 297 298 306 300 300 291 282 276 268 247 221 219 238 251 240 249 181 51 75 73 56 61 115 135 151 160 152 147
29 45 22 351 34 306 22 26 8 12 29 19 7 4 355 345 336 342 345 344 350 354 346 336 348 310 314 297 301 301 303 299 291 288 287 289 290 290 291 292 291 289 294 300 299 300 300 308 308 304 304 304 305 303 296 287 278 277 290 299 295 303 293 286 276 269 272 266 249 241 226 234 247 230 129 115 85 67 50 40 49 107 117 30 192 162
48 30 345 35 30 17 62 329 32 23 321 335 350 345 336 336 351 348 353 352 350 352 346 345 340 339 334 331 330 324 315 306 303 299 294 290 288 290 295 297 298 298 297 296 308 317 313 305 295 294 298 298 297 294 288 283 279 272 266 269 274 274 277 274 275 269 253 249 256 252 243 244 250 153 139 138 131 116 85 53 55 41 113 118 7 154
91 47 78 108 123 260 299 354 53 96 270 262 314 323 326 2 10 357 355 345 346 354 354 356 348 339 337 331 331 323 312 311 313 319 313 314 312 309 308 313 323 332 325 322 316 308 302 298 295 291 289 289 297 302 303 300 296 294 284 271 261 256 258 265 267 270 262 245 239 233 218 203 133 121 134 137 134 121 114 87 39 36 37 65 95 101